Wind_Speed
14 13 12 12 12 12 13 13 14 12 12 12 12 11 11 11 10 9 9 9 8 8 7 7 5 4 4 4 4 4 4 3 4 3 4 4 3 3 4 3 3 3 3 4 5 5 4 5 4
14 13 12 12 14 15 16 15 15 13 13 13 12 12 12 11 10 10 10 10 10 10 9 8 7 5 4 3 3 3 3 3 3 3 3 3 3 3 3 3 2 2 2 3 4 4 4 5 5
14 12 12 12 15 16 16 16 16 15 14 13 13 12 11 11 10 10 11 11 11 10 10 9 8 6 5 3 3 3 3 4 3 3 3 3 2 2 2 2 2 2 3 3 4 4 5 5 6
13 11 11 13 16 16 15 16 17 15 14 13 13 12 12 12 11 11 11 11 11 10 10 10 10 9 6 5 4 4 4 3 3 2 3 2 2 1 1 1 2 3 3 4 4 4 5 5 6
12 12 13 14 15 16 16 16 16 15 13 13 13 12 12 12 12 11 11 10 10 10 10 10 11 11 9 7 6 5 5 4 3 3 2 2 1 0 1 2 2 3 4 4 5 5 5 5 6
12 12 14 15 15 15 15 15 15 14 14 14 13 13 13 13 12 12 11 11 11 10 10 10 10 11 10 9 8 6 5 4 4 3 2 2 1 1 2 2 3 4 5 5 5 6 5 5 5
13 13 14 14 14 13 15 15 15 14 13 13 13 12 12 13 12 12 12 11 11 10 10 10 10 10 9 8 8 7 6 5 4 3 3 2 1 2 2 2 2 2 3 4 5 6 7 7 6
11 12 14 13 12 12 13 14 14 15 14 14 14 13 13 13 13 12 11 10 10 10 10 10 9 9 8 8 8 7 6 6 5 4 3 2 2 2 2 3 2 2 2 2 3 5 6 7 6
12 13 13 12 11 13 13 14 14 15 15 14 14 13 13 13 13 12 12 11 10 10 10 10 9 9 8 8 7 7 6 5 5 4 3 3 2 3 3 4 3 2 1 0 2 4 6 7 6
11 11 12 13 13 13 13 13 14 14 14 14 13 12 12 12 13 13 12 12 11 10 10 9 9 8 8 7 7 7 6 6 5 5 5 4 3 3 4 3 3 1 0 1 2 4 5 6 6
9 9 11 11 12 12 12 13 14 14 13 13 13 12 12 12 12 12 12 12 11 10 9 9 9 9 8 8 7 7 6 7 6 6 5 5 4 4 3 3 2 2 1 1 3 4 5 5 5
8 8 9 10 11 11 12 12 13 13 13 13 14 13 12 12 12 12 11 11 11 10 9 9 9 9 8 7 7 6 6 7 6 6 6 5 5 4 4 4 3 2 2 1 2 4 5 5 5
7 7 7 8 9 10 11 12 13 12 13 14 13 13 12 11 11 11 11 11 10 9 9 9 9 10 9 7 6 6 6 6 6 6 6 6 5 5 5 5 3 3 2 1 1 3 4 5 5
4 4 5 7 8 9 10 11 12 12 14 14 13 13 13 12 11 11 10 10 10 9 9 9 9 9 8 7 6 6 7 6 6 6 6 6 5 5 5 4 4 4 3 2 2 2 3 4 5
2 4 5 6 7 8 9 10 11 12 13 13 12 13 13 12 11 10 10 9 9 9 9 8 9 9 8 8 7 6 6 7 6 6 6 6 5 6 6 5 4 4 4 3 3 3 3 4 4
1 2 4 4 6 7 8 10 11 12 12 12 11 12 12 12 10 10 10 9 8 8 8 8 9 9 9 8 8 7 6 6 6 6 6 6 5 6 6 6 5 5 5 5 4 4 4 4 4
2 1 3 3 4 5 6 9 10 11 11 12 11 12 12 11 11 10 10 9 8 8 8 8 8 8 8 8 7 7 7 7 6 6 6 6 5 6 6 7 7 6 6 6 5 5 5 5 6
3 1 2 3 4 5 5 7 9 9 11 11 11 11 11 11 11 10 10 9 8 8 8 8 8 8 8 8 7 7 7 7 6 6 6 7 7 7 6 7 7 7 7 6 6 6 6 6 7
5 3 2 2 4 6 6 6 8 8 10 10 10 10 10 10 10 10 10 9 8 8 8 8 8 8 9 8 7 8 7 7 7 7 7 7 7 7 7 7 8 8 8 8 8 7 7 8 8
5 4 4 5 6 7 8 8 8 8 9 10 10 9 10 10 10 10 10 9 8 8 8 7 7 8 8 8 7 7 7 7 7 8 8 7 7 7 8 8 9 9 9 9 9 9 9 9 9
6 6 5 6 7 8 10 10 10 10 10 9 8 9 9 10 10 10 9 9 8 8 8 7 7 7 7 7 7 8 8 8 8 9 9 9 8 8 8 9 10 10 11 10 10 10 10 10 10
6 6 7 7 10 11 11 12 10 10 10 9 8 8 9 11 10 9 10 10 9 8 8 8 7 8 8 8 8 8 8 9 9 10 10 10 10 9 9 10 11 12 11 11 11 11 11 12 12
6 7 8 9 10 11 11 13 12 11 10 10 9 9 9 10 10 10 10 10 9 9 9 9 9 8 8 8 9 9 9 10 10 11 11 11 11 11 11 12 12 12 12 13 13 13 13 13 13
8 8 10 10 11 11 11 13 10 9 10 10 9 10 11 11 10 9 9 10 10 9 9 10 10 9 9 9 10 10 10 11 11 12 12 11 12 12 13 13 14 14 14 14 14 14 14 14 14
11 10 10 11 12 11 10 12 10 11 11 10 10 11 11 11 11 10 10 9 10 10 10 10 10 10 10 10 11 11 11 12 12 13 12 12 12 13 14 15 15 15 15 15 15 15 15 16 16
11 11 11 12 12 12 12 14 13 12 11 11 10 11 12 12 11 11 11 10 10 11 11 11 11 11 11 11 12 12 12 13 13 13 13 13 13 13 14 15 15 15 15 15 15 16 16 17 17
10 10 11 13 13 14 15 15 13 12 12 11 10 11 13 13 11 11 11 12 11 12 12 12 13 13 13 13 13 13 13 14 14 13 14 14 14 14 15 15 15 15 15 15 16 17 17 18 18
10 10 11 13 15 16 16 15 14 12 12 12 11 12 13 13 12 13 14 13 13 12 13 13 14 14 14 14 14 14 15 16 16 15 15 15 15 16 16 16 17 16 16 17 17 17 18 18 18
11 11 12 14 15 17 17 15 14 14 14 14 13 14 15 14 15 15 15 14 14 13 14 15 16 16 16 16 16 16 17 17 17 17 17 16 16 17 17 17 18 18 18 17 17 17 18 18 19
15 15 14 15 15 17 18 17 16 16 16 16 15 15 16 16 15 16 17 16 16 15 16 16 16 17 17 17 17 17 17 18 18 18 19 19 18 18 17 18 18 18 18 18 18 19 19 19 19
Wind_Direction
80 75 69 65 58 55 52 49 49 49 46 43 40 38 40 42 46 47 45 47 48 48 47 54 59 64 85 96 94 93 93 93 106 116 123 127 129 144 166 174 181 193 199 208 210 212 218 210 205
80 72 66 64 59 53 51 49 47 47 45 46 45 43 43 45 51 52 48 50 52 52 52 54 54 61 82 101 97 88 88 96 106 112 125 134 141 148 157 168 179 199 215 214 215 217 217 208 204
77 69 67 62 59 51 49 50 46 44 43 44 44 43 44 46 50 51 49 49 52 53 52 52 53 56 72 90 103 94 90 96 102 110 119 130 143 160 165 178 201 224 234 231 226 230 227 218 216
77 71 67 62 58 52 49 48 48 44 43 45 45 45 45 46 49 48 47 50 52 54 53 52 53 53 63 89 97 89 88 92 90 108 114 120 137 164 216 238 247 247 245 234 229 232 231 227 224
78 72 68 62 57 51 47 47 47 43 42 46 47 48 46 45 46 46 46 47 49 54 55 55 57 59 70 89 97 94 84 81 77 86 100 93 86 274 252 265 261 257 257 250 242 234 227 222 215
82 77 71 61 55 49 46 41 43 45 45 46 47 48 47 48 46 44 46 48 48 54 56 57 62 64 73 79 84 91 81 71 70 75 75 67 44 356 319 314 293 282 272 254 242 234 219 218 215
79 72 68 57 49 45 47 43 41 43 43 46 49 48 46 47 47 45 47 51 51 54 55 59 63 65 69 68 72 74 74 65 58 57 49 35 6 338 333 336 315 290 283 258 244 234 220 217 216
75 69 62 53 47 49 47 44 39 41 39 41 43 44 43 45 46 46 44 48 52 55 55 55 57 60 65 67 65 60 59 56 53 46 33 20 1 343 347 352 328 306 298 268 237 218 212 209 211
71 64 65 60 51 49 47 43 37 38 38 37 38 40 40 43 46 47 43 42 48 52 54 54 53 53 58 58 54 54 48 43 39 38 33 29 13 1 1 4 0 354 353 257 209 207 209 206 207
71 63 62 61 52 45 44 46 39 38 36 34 35 38 38 40 44 46 43 42 44 45 48 51 49 48 47 47 47 45 48 42 31 33 33 28 23 25 24 19 27 29 311 207 196 199 202 202 211
71 62 63 56 50 46 42 43 40 37 33 33 33 37 37 39 40 43 44 45 43 40 42 42 40 38 38 41 43 44 45 39 34 32 27 26 26 31 22 17 26 60 107 164 192 198 202 208 214
75 70 59 53 46 46 42 41 38 33 30 31 31 34 35 34 35 37 40 41 42 40 38 37 37 36 36 40 44 44 40 36 30 28 24 21 18 27 27 17 25 47 70 165 198 216 218 221 225
87 79 54 54 47 40 40 37 37 30 30 30 29 32 34 33 33 33 35 38 36 36 36 37 37 36 35 34 37 37 34 27 28 23 24 29 28 29 29 30 31 35 31 33 237 233 229 229 237
81 63 46 43 43 38 38 33 34 31 31 28 25 26 29 28 31 33 32 33 33 33 33 33 34 32 32 34 35 32 28 22 18 15 19 27 28 25 24 29 31 24 10 356 336 280 253 242 245
67 45 28 30 40 33 30 27 31 31 28 23 21 22 24 26 29 33 34 30 30 31 30 29 30 27 27 29 30 24 23 17 11 12 14 12 10 4 4 6 5 359 354 342 319 298 281 260 258
119 46 35 30 33 33 26 27 27 28 25 23 19 18 21 25 30 30 31 30 25 26 27 26 26 25 22 18 18 16 10 4 358 360 2 0 358 354 351 344 340 338 335 327 312 300 289 277 268
197 79 48 43 33 19 11 20 20 21 19 19 13 12 15 21 26 21 20 24 22 22 22 23 24 22 19 14 11 7 2 356 349 347 345 347 347 345 345 339 333 329 322 318 311 306 296 289 282
229 115 59 40 12 351 351 6 13 14 10 10 10 9 10 12 17 14 12 15 18 19 17 16 16 17 14 12 11 4 358 351 344 341 341 339 336 341 338 336 334 325 313 304 299 298 295 292 286
227 233 297 325 333 323 328 346 359 8 3 1 4 6 6 7 10 10 9 8 9 11 9 9 11 12 8 6 4 3 358 351 345 339 341 342 344 344 342 338 333 327 316 308 308 298 292 292 290
244 267 278 274 286 309 325 331 332 339 347 353 353 357 5 2 360 2 3 3 3 5 2 1 1 2 0 358 354 352 353 348 346 344 340 335 332 328 330 330 330 326 319 313 311 302 299 292 288
258 275 288 296 297 307 309 309 313 324 332 336 338 345 355 352 354 356 356 354 354 354 352 349 349 352 353 351 348 346 344 341 339 338 335 329 327 325 324 325 321 319 318 313 311 305 301 298 296
251 271 278 291 293 292 294 301 310 320 326 332 331 334 346 350 345 347 351 347 343 344 342 342 343 343 344 344 340 339 337 334 331 330 330 326 321 319 319 318 315 312 309 307 306 304 301 297 295
256 271 277 283 288 291 298 299 305 306 317 324 328 332 336 339 338 342 348 345 337 338 337 336 335 335 336 337 336 335 333 329 326 326 324 317 312 311 312 311 311 308 304 301 299 298 297 297 294
242 255 268 271 276 282 293 297 306 308 311 320 324 329 329 329 330 335 341 336 329 329 330 328 328 329 329 330 329 331 330 326 323 322 318 312 308 306 307 309 310 309 303 300 299 298 295 294 293
244 257 268 266 268 280 291 295 299 310 306 314 320 321 321 324 330 331 333 329 323 321 322 321 321 321 321 322 321 322 324 325 323 320 316 314 312 310 310 309 311 311 307 303 299 297 295 293 292
250 258 269 274 270 279 288 298 302 301 301 304 310 321 326 320 323 329 321 320 320 319 317 317 317 316 316 314 314 314 316 319 318 316 316 314 313 310 311 311 311 310 309 305 301 297 294 293 292
251 259 266 276 276 279 287 294 297 297 298 299 305 311 318 320 321 324 320 315 314 315 313 315 321 316 313 312 312 309 306 309 313 309 307 309 309 307 307 308 308 307 306 302 301 298 294 292 291
261 263 266 276 281 283 284 291 296 300 304 303 300 303 309 314 316 316 314 310 309 309 308 313 316 313 312 313 308 309 308 309 308 308 305 305 304 303 303 304 306 306 304 301 299 297 297 294 292
265 267 270 276 278 285 289 293 295 297 298 298 296 299 301 304 308 307 306 308 308 307 309 310 311 310 308 306 306 307 306 306 306 306 305 307 304 301 301 302 303 304 303 300 298 298 295 294 293
261 266 269 273 280 286 288 292 294 293 297 296 292 295 300 304 306 305 304 302 303 307 307 307 307 307 306 306 305 302 300 303 304 304 304 305 304 302 302 303 303 303 302 301 299 298 297 296 295
Height
5898 5897 5897 5897 5897 5895 5893 5893 5892 5891 5890 5889 5888 5887 5886 5885 5884 5885 5882 5880 5879 5878 5877 5876 5876 5875 5875 5875 5875 5876 5876 5876 5877 5877 5877 5878 5879 5879 5880 5881 5881 5881 5881 5881 5882 5882 5883 5883 5883
5899 5899 5899 5898 5897 5896 5895 5894 5893 5892 5891 5890 5889 5888 5887 5885 5884 5883 5882 5881 5880 5879 5878 5877 5876 5875 5875 5875 5876 5876 5877 5877 5877 5877 5878 5878 5879 5880 5880 5881 5881 5881 5881 5881 5881 5882 5882 5883 5883
5901 5901 5901 5900 5898 5897 5896 5895 5894 5893 5892 5891 5891 5889 5888 5887 5885 5884 5883 5882 5881 5880 5879 5878 5876 5875 5874 5875 5876 5877 5877 5877 5878 5878 5879 5879 5879 5880 5880 5880 5880 5880 5881 5881 5881 5881 5881 5882 5882
5903 5904 5903 5901 5899 5899 5898 5897 5896 5895 5893 5892 5892 5891 5889 5887 5886 5885 5884 5882 5882 5881 5880 5879 5877 5875 5873 5874 5876 5877 5877 5878 5878 5878 5879 5879 5879 5880 5880 5880 5879 5879 5879 5879 5879 5880 5880 5880 5881
5905 5905 5904 5901 5900 5900 5899 5898 5898 5896 5895 5894 5893 5892 5890 5888 5887 5886 5884 5883 5883 5882 5881 5880 5878 5874 5870 5872 5875 5877 5878 5879 5879 5879 5879 5879 5879 5879 5879 5879 5878 5878 5877 5877 5878 5878 5878 5879 5880
5906 5906 5905 5903 5902 5902 5901 5900 5900 5899 5897 5895 5894 5893 5891 5890 5888 5887 5885 5884 5884 5883 5882 5881 5880 5878 5876 5876 5877 5879 5879 5880 5880 5880 5879 5879 5879 5879 5878 5878 5877 5876 5875 5874 5875 5875 5876 5878 5879
5909 5908 5905 5905 5904 5904 5903 5902 5901 5900 5898 5897 5895 5894 5892 5891 5890 5888 5887 5886 5885 5884 5884 5883 5882 5881 5880 5880 5880 5880 5880 5881 5880 5880 5880 5879 5879 5879 5878 5877 5875 5873 5872 5872 5872 5873 5874 5876 5878
5910 5909 5906 5906 5906 5905 5904 5904 5903 5901 5900 5898 5896 5895 5894 5893 5891 5889 5888 5887 5886 5886 5885 5884 5883 5883 5882 5882 5882 5881 5881 5881 5881 5880 5880 5879 5879 5878 5877 5876 5874 5872 5870 5870 5870 5871 5873 5875 5878
5911 5911 5908 5908 5908 5907 5905 5905 5904 5902 5899 5899 5898 5897 5895 5894 5892 5891 5889 5888 5887 5887 5886 5886 5885 5884 5883 5883 5882 5882 5882 5881 5881 5880 5880 5879 5878 5878 5877 5875 5873 5871 5870 5870 5870 5870 5872 5875 5877
5912 5912 5910 5910 5909 5907 5907 5906 5905 5903 5902 5901 5899 5898 5896 5895 5893 5892 5891 5890 5889 5888 5888 5887 5886 5885 5884 5884 5883 5883 5882 5882 5881 5880 5879 5879 5878 5877 5876 5875 5873 5871 5870 5870 5870 5871 5873 5875 5876
5913 5912 5911 5910 5909 5908 5908 5907 5905 5905 5904 5903 5901 5899 5898 5896 5894 5893 5893 5891 5890 5889 5888 5888 5887 5886 5885 5884 5884 5883 5883 5882 5881 5881 5880 5879 5878 5877 5877 5875 5874 5872 5871 5870 5871 5872 5873 5875 5875
5914 5913 5912 5911 5910 5910 5909 5908 5907 5906 5906 5904 5902 5900 5899 5897 5896 5895 5894 5892 5891 5890 5890 5889 5888 5887 5886 5885 5885 5884 5883 5883 5882 5881 5880 5879 5878 5877 5876 5875 5874 5873 5872 5871 5872 5873 5873 5874 5875
5915 5914 5913 5912 5912 5911 5909 5909 5908 5907 5906 5904 5903 5901 5900 5898 5897 5896 5894 5893 5892 5891 5890 5889 5888 5887 5887 5886 5885 5884 5884 5883 5882 5881 5880 5879 5878 5877 5876 5875 5874 5874 5873 5872 5872 5873 5873 5873 5874
5915 5914 5914 5913 5913 5912 5911 5910 5909 5907 5906 5905 5904 5902 5901 5899 5898 5896 5895 5894 5893 5892 5891 5890 5889 5888 5887 5886 5885 5885 5884 5883 5882 5881 5880 5879 5878 5878 5877 5876 5875 5874 5873 5873 5872 5872 5872 5872 5873
5915 5915 5914 5914 5913 5913 5912 5911 5909 5908 5907 5906 5905 5903 5902 5900 5898 5897 5896 5895 5894 5893 5892 5891 5889 5888 5887 5886 5885 5884 5884 5883 5882 5881 5880 5879 5878 5877 5877 5876 5874 5874 5873 5872 5872 5872 5872 5871 5871
5916 5916 5915 5915 5914 5913 5914 5912 5910 5909 5907 5906 5905 5904 5902 5900 5899 5897 5896 5895 5895 5893 5892 5891 5890 5888 5887 5886 5885 5884 5883 5882 5882 5881 5880 5879 5878 5877 5876 5875 5874 5873 5872 5872 5871 5871 5870 5870 5870
5915 5916 5915 5914 5914 5914 5913 5912 5910 5909 5908 5907 5905 5904 5903 5901 5900 5898 5897 5896 5895 5893 5892 5891 5890 5888 5887 5886 5885 5884 5883 5882 5881 5880 5879 5878 5877 5876 5875 5874 5873 5872 5871 5870 5870 5869 5869 5868 5868
5915 5915 5914 5913 5914 5913 5913 5912 5911 5909 5908 5907 5906 5904 5903 5902 5900 5898 5897 5896 5895 5893 5892 5891 5890 5888 5887 5886 5885 5884 5882 5881 5880 5879 5878 5877 5876 5874 5873 5872 5871 5870 5869 5869 5868 5867 5867 5866 5866
5914 5914 5913 5914 5913 5912 5911 5911 5910 5909 5908 5907 5905 5904 5903 5901 5900 5898 5897 5896 5894 5893 5892 5891 5889 5888 5887 5885 5884 5883 5882 5881 5879 5878 5877 5876 5875 5873 5872 5871 5870 5868 5867 5867 5866 5865 5864 5864 5863
5912 5912 5912 5912 5911 5911 5910 5910 5909 5908 5907 5906 5905 5903 5902 5901 5899 5898 5896 5895 5894 5892 5891 5890 5889 5888 5886 5885 5883 5882 5881 5880 5878 5877 5876 5874 5873 5872 5871 5869 5868 5867 5865 5864 5863 5862 5861 5861 5860
5911 5911 5911 5910 5910 5909 5909 5909 5909 5907 5905 5904 5903 5902 5901 5900 5898 5896 5895 5894 5893 5892 5890 5889 5888 5887 5885 5884 5882 5881 5880 5878 5877 5876 5874 5873 5871 5870 5868 5867 5866 5864 5863 5861 5860 5859 5858 5858 5857
5910 5910 5909 5909 5909 5908 5909 5907 5907 5905 5904 5902 5902 5901 5899 5898 5897 5895 5893 5893 5892 5891 5889 5888 5887 5885 5884 5883 5881 5880 5878 5877 5875 5874 5872 5871 5869 5868 5866 5864 5863 5861 5860 5858 5857 5856 5855 5854 5853
5908 5908 5908 5907 5907 5907 5906 5905 5905 5902 5902 5901 5901 5899 5898 5896 5895 5894 5892 5892 5890 5889 5888 5887 5885 5884 5882 5881 5879 5878 5876 5875 5873 5872 5870 5868 5867 5865 5863 5861 5859 5858 5856 5855 5853 5852 5851 5850 5849
5907 5907 5906 5905 5905 5904 5904 5903 5902 5901 5900 5899 5898 5897 5896 5894 5893 5892 5891 5890 5889 5888 5887 5885 5884 5882 5881 5879 5877 5876 5874 5872 5871 5869 5867 5865 5863 5862 5860 5858 5856 5854 5852 5851 5850 5848 5847 5845 5844
5904 5905 5905 5903 5902 5902 5902 5900 5900 5899 5898 5897 5896 5895 5893 5892 5891 5890 5889 5888 5887 5886 5885 5883 5881 5880 5878 5877 5875 5873 5872 5870 5868 5866 5864 5862 5860 5858 5857 5855 5852 5850 5848 5847 5845 5844 5843 5841 5839
5902 5902 5903 5902 5900 5900 5898 5897 5898 5896 5895 5894 5893 5892 5891 5890 5889 5888 5887 5886 5885 5883 5882 5880 5879 5877 5875 5874 5872 5870 5869 5867 5865 5863 5861 5859 5857 5855 5853 5851 5849 5846 5844 5842 5841 5839 5838 5836 5834
5899 5899 5899 5898 5897 5897 5896 5894 5894 5892 5892 5891 5890 5889 5888 5887 5886 5886 5885 5883 5881 5880 5878 5877 5876 5874 5872 5870 5868 5867 5865 5863 5862 5859 5857 5855 5853 5851 5849 5847 5845 5842 5840 5838 5836 5834 5832 5831 5829
5897 5897 5896 5895 5894 5893 5892 5891 5891 5890 5889 5888 5887 5885 5884 5883 5883 5882 5881 5880 5878 5876 5875 5874 5872 5870 5868 5867 5866 5864 5862 5860 5858 5856 5853 5851 5849 5847 5845 5843 5840 5838 5835 5833 5831 5829 5827 5825 5823
5893 5893 5892 5891 5891 5890 5889 5890 5888 5887 5885 5885 5883 5882 5881 5881 5880 5879 5877 5876 5875 5873 5872 5870 5868 5866 5865 5863 5861 5859 5857 5856 5854 5851 5849 5847 5845 5842 5840 5838 5835 5833 5830 5828 5826 5824 5822 5819 5818
5889 5889 5888 5888 5887 5886 5885 5888 5885 5883 5882 5881 5880 5879 5878 5877 5876 5875 5873 5872 5871 5869 5868 5866 5864 5863 5861 5859 5857 5855 5853 5851 5849 5846 5844 5842 5840 5837 5835 5833 5830 5828 5825 5823 5820 5818 5816 5814 5811